Tracking 20721 objects as of 31-May-2020
HD Live streaming from Space Station
objects crossing your sky now
Track the CREW DRAGON and SPACE STATION

BLOCK DM-SL R/B

Track BLOCK DM-SL R/B now!


NORAD ID: 29046
Int'l Code: 2006-010B
Perigee: 1,628.3 km
Apogee: 35,662.1 km
Inclination: 0.7 °
Period: 656.3 minutes
Semi major axis: 25016 km
RCS: 20.8191 m2 (large)
Launch date: April 12, 2006
Source: Sea Launch (SEAL)
Launch site: SEA LAUNCH (SEAL)

Note: This is a ROCKET BODY
aabbcc
Your satellite tracking list
Your tracking list is empty




NASA's NSSDC Master Catalog

Two Line Element Set (TLE):
1 29046U 06010B   20151.45769088 -.00000174 +00000-0 +00000-0 0  9997
2 29046 000.6912 040.8450 6802346 210.3859 027.9354 02.19417223113319
Source of the keplerian elements: AFSPC